Date,TemperatureHighF,TemperatureAvgF,TemperatureLowF,DewpointHighF,DewpointAvgF,DewpointLowF,HumidityHigh,HumidityAvg,HumidityLow,PressureMaxIn,PressureMinIn,WindSpeedMaxMPH,WindSpeedAvgMPH,GustSpeedMaxMPH,PrecipitationSumIn
2013-1-1,43.7,36.9,33.4,36.8,34.9,33.2,99,93,76,30.51,30.36,3,1,6,0.00
2013-1-2,48.6,36.8,32.9,39.5,34.8,32.7,99,93,68,30.37,30.20,3,2,7,0.00
2013-1-3,45.1,35.3,30.9,39.6,34.1,30.7,99,96,75,30.21,30.07,4,2,9,0.00
2013-1-4,43.9,39.9,36.7,42.1,39.2,36.4,99,97,92,30.29,30.12,2,1,6,0.00
2013-1-5,47.5,43.7,40.5,43.3,41.2,39.7,98,91,80,30.17,30.01,13,5,23,0.00
2013-1-6,44.4,42.8,39.6,41.0,39.4,37.4,99,88,78,30.07,29.89,9,4,16,0.00
2013-1-7,42.1,39.8,36.3,41.8,39.2,35.6,99,98,92,30.09,29.73,6,2,14,0.00
2013-1-8,48.7,39.9,36.1,45.4,37.8,34.1,97,92,82,30.11,29.51,11,3,21,0.00
2013-1-9,51.6,43.5,37.6,44.0,39.2,37.0,99,85,64,29.89,29.55,8,2,15,0.00
2013-1-10,51.4,38.1,29.5,40.6,34.1,28.0,99,87,55,30.15,29.89,3,1,7,0.00
2013-1-11,46.6,33.7,27.1,29.3,27.2,24.1,95,79,44,30.31,30.15,4,2,7,0.00
2013-1-12,46.2,34.0,29.8,30.9,27.8,25.8,91,78,55,30.42,30.31,3,2,7,0.00
2013-1-13,36.0,32.0,28.0,31.4,28.6,25.6,92,87,79,30.46,30.41,3,2,6,0.00
2013-1-14,37.0,34.4,32.4,34.9,33.1,30.0,99,95,87,30.57,30.44,2,1,6,0.00
2013-1-15,39.0,36.2,34.3,36.4,35.1,33.8,99,96,89,30.70,30.57,2,1,4,0.00
2013-1-16,38.5,37.0,36.3,37.3,35.7,34.6,98,95,91,30.68,30.53,2,1,6,0.00
2013-1-17,48.9,36.6,32.0,39.2,34.3,31.8,99,92,66,30.54,30.28,3,2,7,0.00
2013-1-18,41.4,36.2,32.0,37.8,35.2,31.8,99,96,85,30.34,30.25,3,1,6,0.00
2013-1-19,42.3,37.0,34.7,38.5,35.9,34.2,99,96,85,30.39,30.34,2,1,5,0.00
2013-1-20,39.2,35.9,33.1,37.9,34.8,32.1,99,96,90,30.40,30.28,2,0,5,0.00
2013-1-21,35.8,33.0,30.4,33.1,31.0,28.6,96,92,87,30.28,30.11,2,1,5,0.00
2013-1-22,38.5,35.0,32.2,35.4,29.2,22.2,93,80,57,30.13,29.90,4,2,8,0.00
2013-1-23,41.9,40.8,37.6,41.3,39.4,35.0,99,95,85,30.05,29.78,5,1,11,0.00
2013-1-24,44.4,41.7,38.7,40.0,35.7,27.6,91,79,59,30.15,29.93,15,5,24,0.00
2013-1-25,57.2,45.3,38.3,45.2,39.8,35.8,97,81,60,30.01,29.84,14,5,23,0.00
2013-1-26,46.2,42.0,39.0,41.8,39.9,38.0,97,93,78,29.98,29.81,6,1,13,0.00
2013-1-27,46.4,40.3,37.6,42.7,38.8,36.5,98,94,85,29.98,29.91,3,1,8,0.00
2013-1-28,41.5,39.7,38.8,39.9,37.9,36.1,97,93,89,30.02,29.94,3,0,9,0.00
2013-1-29,45.9,41.2,39.0,41.9,39.6,37.7,97,94,85,30.28,30.02,2,1,6,0.00
2013-1-30,50.0,42.3,39.4,42.7,39.9,35.0,96,91,75,30.35,30.27,2,0,5,0.00
2013-1-31,47.5,43.9,41.7,43.9,39.7,36.5,93,85,70,30.35,30.24,2,0,6,0.00